�N����,����,����,����,����,�C��,���x,�~����,�S�V����,�ő�u�ԕ���,,,,,
,,,,,,,,,����,����,����,�N��,,
yyyy/mm/dd,hh:mm:ss,(16),16����,m/s,��,%,mm,KW/�u,(16),16����,m/s,Time,,
2021/2/1,1:00:00,13,���k��,2.7,-20.9,84.7,0,0,13,���k��,4,27,,
2021/2/1,2:00:00,12,��,2.8,-20.3,85.5,0,0,13,���k��,3.7,48,,
2021/2/1,3:00:00,13,���k��,2.8,-19.7,88.5,0,0,13,���k��,3.7,55,,
2021/2/1,4:00:00,13,���k��,1.8,-18.7,88,0,0,12,��,3.7,37,,
2021/2/1,5:00:00,14,�k��,2.7,-18.1,87.5,0,0,14,�k��,4.8,40,,
2021/2/1,6:00:00,13,���k��,3.1,-18.3,88.1,0,0,13,���k��,4.7,49,,
2021/2/1,7:00:00,13,���k��,2.5,-19.6,87.4,0,0.01,13,���k��,4.6,0,,
2021/2/1,8:00:00,13,���k��,2.3,-17.2,90.1,0,0.1,12,��,4.7,42,,
2021/2/1,9:00:00,12,��,1.8,-13.6,92.3,0,0.3,12,��,3.4,43,,
2021/2/1,10:00:00,16,�É�,0,-8.2,88.3,0,0.47,12,��,3.3,8,,
2021/2/1,11:00:00,7,��쓌,0.9,-2.5,65.2,0,0.58,8,��,3.6,46,,
2021/2/1,12:00:00,9,��쐼,4.2,0.9,58.6,0,0.61,9,��쐼,7.3,47,,
2021/2/1,13:00:00,9,��쐼,3.2,1.5,57.6,0.5,0.58,8,��,8.8,5,,
2021/2/1,14:00:00,9,��쐼,5,0.7,64,0.5,0.48,9,��쐼,8.9,57,,
2021/2/1,15:00:00,9,��쐼,6.3,0.9,69.1,0,0.36,9,��쐼,11.5,55,,
2021/2/1,16:00:00,8,��,5.2,0.4,78.5,0.5,0.17,8,��,11.7,23,,
2021/2/1,17:00:00,8,��,5.5,1.6,72.5,0,0.02,9,��쐼,11.7,55,,
2021/2/1,18:00:00,8,��,6.1,2.1,74.6,0,0,8,��,12.5,57,,
2021/2/1,19:00:00,8,��,5.7,2.8,72,0,0,8,��,12.4,17,,
2021/2/1,20:00:00,7,��쓌,3.5,3.6,66.1,0.5,0,8,��,9.6,8,,
2021/2/1,21:00:00,8,��,2.3,3.5,67.9,0,0,7,��쓌,7.8,2,,
2021/2/1,22:00:00,8,��,2.5,3.1,72.7,0.5,0,8,��,5.8,25,,
2021/2/1,23:00:00,8,��,1.6,3.1,70.7,0.5,0,9,��쐼,5.1,1,,
2021/2/1,0:00:00,8,��,2.5,4.8,61.9,0,0,9,��쐼,5.4,20,,
2021/2/2,1:00:00,11,���쐼,3.7,4.5,77,0.5,0,11,���쐼,9.1,45,,
2021/2/2,2:00:00,10,�쐼,4.9,4.5,80.8,1,0,10,�쐼,7.9,48,,
2021/2/2,3:00:00,11,���쐼,3.9,4.3,85.6,0.5,0,10,�쐼,7.6,31,,
2021/2/2,4:00:00,10,�쐼,2.5,4.1,85.6,1,0,10,�쐼,7.7,2,,
2021/2/2,5:00:00,12,��,4.1,6,66.3,0.5,0,12,��,6.6,56,,
2021/2/2,6:00:00,11,���쐼,6.6,6.3,60.7,0.5,0,10,�쐼,9.8,52,,
2021/2/2,7:00:00,11,���쐼,4.6,5.8,63.6,0.5,0.01,11,���쐼,12,16,,
2021/2/2,8:00:00,11,���쐼,6.6,4.1,76.7,0,0.05,11,���쐼,12.3,53,,
2021/2/2,9:00:00,12,��,5.8,4.8,64.6,0.5,0.19,12,��,9.3,53,,
2021/2/2,10:00:00,12,��,7.1,5.2,49.4,0,0.46,11,���쐼,15.5,27,,
2021/2/2,11:00:00,11,���쐼,6.1,4.1,45.5,0,0.57,12,��,17.6,7,,
2021/2/2,12:00:00,12,��,8.7,3.2,50.4,0,0.58,13,���k��,14.7,58,,
2021/2/2,13:00:00,12,��,8.4,1.8,45.7,0,0.61,12,��,15,2,,
2021/2/2,14:00:00,15,�k�k��,5.5,0.4,41.4,0,0.59,12,��,15.9,2,,
2021/2/2,15:00:00,15,�k�k��,5.6,-1.3,41.9,0,0.45,15,�k�k��,11.7,9,,
2021/2/2,16:00:00,14,�k��,3.1,-2.7,39.4,0,0.19,14,�k��,8.7,1,,
2021/2/2,17:00:00,12,��,2.2,-5.6,50.8,0,0.02,14,�k��,7.4,9,,
2021/2/2,18:00:00,11,���쐼,6.2,-5.5,51.1,0,0,11,���쐼,10.3,46,,
2021/2/2,19:00:00,12,��,8.6,-5.9,46.3,0,0,12,��,13.4,55,,
2021/2/2,20:00:00,12,��,7.2,-6.8,46.1,0,0,12,��,12.8,16,,
2021/2/2,21:00:00,12,��,6.8,-7.5,48.5,0,0,12,��,13.4,6,,
2021/2/2,22:00:00,12,��,5.2,-8.1,54.2,0,0,12,��,11.1,4,,
2021/2/2,23:00:00,11,���쐼,3.9,-9.6,60.1,0,0,11,���쐼,7.5,22,,
2021/2/2,0:00:00,12,��,6.4,-8.6,51.2,0,0,12,��,10.9,53,,
2021/2/3,1:00:00,12,��,8.1,-8.4,45.7,0,0,12,��,13,45,,
2021/2/3,2:00:00,12,��,4.3,-9.3,50.3,0,0,12,��,11.8,9,,
2021/2/3,3:00:00,12,��,5.3,-8.9,54.4,0,0,12,��,11.2,17,,
2021/2/3,4:00:00,12,��,6.3,-8.9,47.2,0,0,13,���k��,11.6,11,,
2021/2/3,5:00:00,12,��,7.4,-9,42.9,0,0,12,��,13.8,44,,
2021/2/3,6:00:00,12,��,7.7,-8.9,41.8,0,0,12,��,12.6,49,,
2021/2/3,7:00:00,12,��,5.7,-9.5,42.5,0,0.01,12,��,13.6,22,,
2021/2/3,8:00:00,12,��,6.2,-8.9,39.4,0,0.14,12,��,11.2,59,,
2021/2/3,9:00:00,12,��,9.2,-8.5,36.7,0,0.33,11,���쐼,15.1,43,,
2021/2/3,10:00:00,12,��,8.2,-7.9,36,0,0.51,12,��,13.6,10,,
2021/2/3,11:00:00,13,���k��,7.5,-7.3,33.5,0,0.59,12,��,15.1,29,,
2021/2/3,12:00:00,12,��,9.6,-7.4,36,0,0.65,14,�k��,15.9,43,,
2021/2/3,13:00:00,12,��,9.2,-7.5,36.8,0,0.54,12,��,14.9,25,,
2021/2/3,14:00:00,12,��,10.8,-8.2,40.7,0,0.39,12,��,17.9,10,,
2021/2/3,15:00:00,12,��,8.2,-8.1,40.6,0,0.23,12,��,15.9,14,,
2021/2/3,16:00:00,12,��,8.7,-9.1,43.8,0,0.08,12,��,14.5,42,,
2021/2/3,17:00:00,12,��,4.9,-9.8,45.1,0,0.02,12,��,11.7,7,,
2021/2/3,18:00:00,14,�k��,2.4,-11.1,46.7,0,0,12,��,9.9,8,,
2021/2/3,19:00:00,16,�k,1.2,-12.4,52,0,0,14,�k��,4.1,0,,
2021/2/3,20:00:00,15,�k�k��,0.8,-17.5,71.9,0,0,1,�k�k��,3,10,,
2021/2/3,21:00:00,14,�k��,0.7,-19.2,75.3,0,0,3,���k��,4.1,13,,
2021/2/3,22:00:00,13,���k��,1,-20.8,76.2,0,0,13,���k��,3.9,38,,
2021/2/3,23:00:00,13,���k��,1.4,-23.1,78.7,0,0,12,��,3.5,7,,
2021/2/3,0:00:00,14,�k��,1.4,-23,81.4,0,0,12,��,3.9,17,,
2021/2/4,1:00:00,13,���k��,1.8,-22.5,78.9,0,0,13,���k��,4.8,13,,
2021/2/4,2:00:00,13,���k��,1.9,-22,78.6,0,0,13,���k��,4.6,23,,
2021/2/4,3:00:00,12,��,3,-24.8,74.2,0,0,12,��,5.2,50,,
2021/2/4,4:00:00,13,���k��,2.5,-21.9,70.4,0,0,13,���k��,6,28,,
2021/2/4,5:00:00,13,���k��,2.4,-22.3,79.3,0,0,12,��,6.7,6,,
2021/2/4,6:00:00,14,�k��,2.1,-23.3,72.9,0,0,13,���k��,7.1,27,,
2021/2/4,7:00:00,13,���k��,2.5,-21.6,77.2,0,0.01,13,���k��,5.8,0,,
2021/2/4,8:00:00,11,���쐼,3.4,-17.1,55.9,0,0.16,13,���k��,8,18,,
2021/2/4,9:00:00,12,��,2.3,-14.5,60.3,0,0.36,11,���쐼,4.1,8,,
2021/2/4,10:00:00,9,��쐼,1.3,-5.9,33,0,0.51,10,�쐼,3.1,7,,
2021/2/4,11:00:00,11,���쐼,2.8,-5.2,32.9,0,0.61,12,��,6.3,55,,
2021/2/4,12:00:00,12,��,2.8,-4.8,42.5,0,0.63,12,��,6.6,22,,
2021/2/4,13:00:00,10,�쐼,3.2,-4.6,43.8,0,0.49,11,���쐼,5.9,6,,
2021/2/4,14:00:00,10,�쐼,4.2,-4.6,49.7,0,0.33,10,�쐼,6.3,51,,
2021/2/4,15:00:00,11,���쐼,3.2,-4.9,48.1,0,0.27,10,�쐼,6.9,27,,
2021/2/4,16:00:00,13,���k��,2,-5.4,43.6,0,0.13,11,���쐼,7.3,22,,
2021/2/4,17:00:00,12,��,5.1,-7.1,47.5,0,0.03,12,��,7.3,57,,
2021/2/4,18:00:00,12,��,3.9,-7.6,49.8,0,0,12,��,7.9,13,,
2021/2/4,19:00:00,16,�k,1.6,-10.2,59.7,0,0,12,��,5.1,5,,
2021/2/4,20:00:00,15,�k�k��,0.6,-13.3,74.2,0,0,16,�k,2.5,1,,
2021/2/4,21:00:00,13,���k��,1.2,-18.3,85.2,0,0,12,��,2.5,11,,
2021/2/4,22:00:00,13,���k��,2.3,-17.7,89.4,0,0,13,���k��,3.6,45,,
2021/2/4,23:00:00,12,��,1.3,-21.1,86,0,0,13,���k��,3.8,14,,
2021/2/4,0:00:00,11,���쐼,1.9,-22.1,87.4,0,0,11,���쐼,3.8,52,,
2021/2/5,1:00:00,16,�É�,0.2,-21.5,84.4,0,0,11,���쐼,3.9,18,,
2021/2/5,2:00:00,12,��,0.4,-23.4,83,0,0,13,���k��,2.9,16,,
2021/2/5,3:00:00,16,�k,0.7,-23.2,82.7,0,0,11,���쐼,1.8,0,,
2021/2/5,4:00:00,13,���k��,1.7,-24.3,82.9,0,0,12,��,2.9,47,,
2021/2/5,5:00:00,13,���k��,2.4,-22.6,83.6,0,0.01,12,��,4,53,,
2021/2/5,6:00:00,13,���k��,3,-23.3,83.8,0,0,13,���k��,4.8,35,,
2021/2/5,7:00:00,11,���쐼,0.9,-20.9,84.8,0,0.02,12,��,6.7,23,,
2021/2/5,8:00:00,12,��,1.9,-21.4,83.7,0,0.15,11,���쐼,4.8,13,,
2021/2/5,9:00:00,12,��,1.5,-8.2,46.6,0,0.36,12,��,6.7,30,,
2021/2/5,10:00:00,12,��,4.3,-5.8,45.7,0,0.52,11,���쐼,7.4,22,,
2021/2/5,11:00:00,12,��,4.7,-5.1,43.6,0,0.62,12,��,9.5,42,,
2021/2/5,12:00:00,12,��,4.7,-4.4,44.6,0,0.66,12,��,10.1,33,,
2021/2/5,13:00:00,12,��,2.7,-3.7,37.2,0,0.64,11,���쐼,9.6,4,,
2021/2/5,14:00:00,15,�k�k��,1.7,-3,30.4,0,0.56,14,�k��,5.1,11,,
2021/2/5,15:00:00,11,���쐼,3.5,-3.7,44.7,0,0.42,12,��,6,40,,
2021/2/5,16:00:00,12,��,3.8,-4.2,46.2,0,0.23,10,�쐼,7,29,,
2021/2/5,17:00:00,1,�k�k��,0.7,-4,39.8,0,0.04,12,��,5.4,8,,
2021/2/5,18:00:00,1,�k�k��,1.9,-6.9,49.6,0,0,1,�k�k��,2.8,55,,
2021/2/5,19:00:00,1,�k�k��,1.6,-15.8,73.6,0,0,1,�k�k��,3,33,,
2021/2/5,20:00:00,15,�k�k��,0.8,-18.4,77.5,0,0,2,�k��,3.3,45,,
2021/2/5,21:00:00,13,���k��,1.2,-18.4,76.2,0,0,13,���k��,3.3,39,,
2021/2/5,22:00:00,12,��,1.7,-17.1,84.3,0,0,12,��,3,24,,
2021/2/5,23:00:00,13,���k��,1.4,-16.8,80.6,0,0,13,���k��,4.3,25,,
2021/2/5,0:00:00,12,��,2,-16.4,84.1,0,0,12,��,3.2,55,,
2021/2/6,1:00:00,13,���k��,2.5,-13.3,79.4,0,0,13,���k��,5.2,18,,
2021/2/6,2:00:00,12,��,1.8,-12.5,83.4,0,0,13,���k��,6,16,,
2021/2/6,3:00:00,8,��,6.4,0.4,80.8,0,0,9,��쐼,11.1,58,,
2021/2/6,4:00:00,8,��,5.9,0.3,84.5,0,0,8,��,11.1,3,,
2021/2/6,5:00:00,8,��,4.5,0.4,91.3,0,0,8,��,10.3,0,,
2021/2/6,6:00:00,8,��,3.1,1.2,86.9,0,0,8,��,7.2,6,,
2021/2/6,7:00:00,10,�쐼,1.1,-0.2,86.3,0,0.01,8,��,7.3,9,,
2021/2/6,8:00:00,-1.5,#N/A,85.7,0,0.13,,,,,,,,
2021/2/6,9:00:00,14,�k��,1.8,-1,75.7,0,0.29,14,�k��,3.7,33,,
2021/2/6,10:00:00,4,��,0.4,2.5,74,0,0.42,7,��쓌,2.6,41,,
2021/2/6,11:00:00,3,���k��,1.5,2.5,79.8,0,0.5,3,���k��,3,24,,
2021/2/6,12:00:00,3,���k��,1.1,2.7,78.2,0,0.49,15,�k�k��,2.5,15,,
2021/2/6,13:00:00,16,�k,1.9,3.1,73.2,0,0.48,16,�k,2.9,7,,
2021/2/6,14:00:00,1,�k�k��,0.6,4.3,71.4,0,0.22,16,�k,2.5,40,,
2021/2/6,15:00:00,9,��쐼,1.9,4.2,71.5,0,0.18,11,���쐼,3.7,53,,
2021/2/6,16:00:00,1,�k�k��,0.8,2.3,77.1,0,0.1,9,��쐼,2.8,1,,
2021/2/6,17:00:00,1,�k�k��,0.8,-1.1,86.7,0,0.02,16,�k,1.6,2,,
2021/2/6,18:00:00,15,�k�k��,1.3,-0.1,86.1,0,0,14,�k��,2.5,54,,
2021/2/6,19:00:00,13,���k��,0.9,-0.6,80.1,0,0,13,���k��,3.5,31,,
2021/2/6,20:00:00,9,��쐼,0.4,-3.5,97.4,0,0,13,���k��,7.4,30,,
2021/2/6,21:00:00,8,��,0.4,-6.7,94.4,0,0,12,��,17.6,3,,
2021/2/6,22:00:00,12,��,0.7,-5.6,100,0,0,11,���쐼,3.3,48,,
2021/2/6,23:00:00,13,���k��,1.1,-8.2,97.6,0,0,13,���k��,2.4,20,,
2021/2/6,0:00:00,12,��,0.4,-9.7,95.5,0,0,14,�k��,2.4,50,,
2021/2/7,1:00:00,12,��,1.5,-7.2,97.1,0,0,12,��,1.7,59,,
2021/2/7,2:00:00,12,��,1.9,-8.6,96,0,0,12,��,2.4,57,,
2021/2/7,3:00:00,13,���k��,0.9,-10.4,94.7,0,0,13,���k��,2.5,38,,
2021/2/7,4:00:00,13,���k��,0.7,-7.7,97.5,0,0,14,�k��,1.9,45,,
2021/2/7,5:00:00,12,��,2.1,-7.3,98,0,0,12,��,2.5,59,,
2021/2/7,6:00:00,13,���k��,1.8,-6.5,98.1,0,0,15,�k�k��,2.7,36,,
2021/2/7,7:00:00,-5.7,#N/A,98.8,0,0.01,,,,,,,,
2021/2/7,8:00:00,2,�k��,2.4,-3.3,100,0,0.03,2,�k��,3.6,53,,
2021/2/7,9:00:00,3,���k��,3.2,-2.9,100,0,0.13,3,���k��,4.9,54,,
2021/2/7,10:00:00,2,�k��,2.5,-3,99.1,0,0.18,2,�k��,4.6,25,,
2021/2/7,11:00:00,3,���k��,2.9,-2,86.4,0,0.34,2,�k��,4.3,8,,
2021/2/7,12:00:00,2,�k��,3,-2.6,88.1,0,0.32,3,���k��,6,10,,
2021/2/7,13:00:00,2,�k��,3.5,-2.8,88.4,0,0.24,2,�k��,4.7,55,,
2021/2/7,14:00:00,3,���k��,3.5,-2.7,88.2,0,0.28,4,��,5.7,28,,
2021/2/7,15:00:00,4,��,4.3,-2.7,87.8,0,0.25,4,��,5.9,57,,
2021/2/7,16:00:00,4,��,2.5,-2.8,91.1,0,0.07,3,���k��,5.1,22,,
2021/2/7,17:00:00,4,��,2.9,-3.1,95.7,0,0.03,4,��,4.3,40,,
2021/2/7,18:00:00,3,���k��,2,-3.5,95,0,0,5,���쓌,5.1,28,,
2021/2/7,19:00:00,3,���k��,2.8,-4,98.4,0,0,3,���k��,4.4,47,,
2021/2/7,20:00:00,3,���k��,4.3,-4.8,97.8,0,0,1,�k�k��,6.8,27,,
2021/2/7,21:00:00,2,�k��,4.2,-5.5,96.7,0,0,3,���k��,8.4,34,,
2021/2/7,22:00:00,1,�k�k��,2,-6.6,97.2,0,0,3,���k��,6.5,6,,
2021/2/7,23:00:00,1,�k�k��,1.3,-7.1,94.8,0,0,16,�k,3.2,28,,
2021/2/7,0:00:00,15,�k�k��,1,-8.6,98.1,0,0,16,�k,2.7,5,,
2021/2/8,1:00:00,14,�k��,2,-9.3,91.3,0,0,14,�k��,4,24,,
2021/2/8,2:00:00,15,�k�k��,1.7,-10.5,88.5,0,0,14,�k��,4.1,44,,
2021/2/8,3:00:00,14,�k��,0.8,-18.3,88.1,0,0,14,�k��,2.5,31,,
2021/2/8,4:00:00,14,�k��,2.2,-15,93.5,0,0,14,�k��,3.2,0,,
2021/2/8,5:00:00,13,���k��,2,-18.2,88.8,0,0,13,���k��,4.3,47,,
2021/2/8,6:00:00,12,��,2.3,-14.8,91.9,0,0,12,��,3.4,6,,
2021/2/8,7:00:00,14,�k��,2.6,-14.7,92.6,0,0.02,14,�k��,4.4,55,,
2021/2/8,8:00:00,13,���k��,3.4,-13.7,93.1,0,0.14,13,���k��,5,57,,
2021/2/8,9:00:00,14,�k��,1.8,-11.4,83.5,0,0.33,14,�k��,3.7,0,,
2021/2/8,10:00:00,10,�쐼,0.4,-8.8,84.6,0,0.47,10,�쐼,4.3,34,,
2021/2/8,11:00:00,5,���쓌,1,-5.6,83.6,0,0.62,6,�쓌,2.1,12,,
2021/2/8,12:00:00,3,���k��,1,-4.4,80.5,0,0.67,5,���쓌,2.1,3,,
2021/2/8,13:00:00,5,���쓌,1.6,-5.5,75.5,2.5,0.66,5,���쓌,2.5,40,,
2021/2/8,14:00:00,4,��,0.6,-3.9,73.5,1.5,0.56,6,�쓌,3.2,28,,
2021/2/8,15:00:00,12,��,3.6,-4.7,57.1,0.5,0.44,12,��,5.3,51,,
2021/2/8,16:00:00,14,�k��,1.6,-7.8,61.6,0.5,0.29,12,��,9.5,29,,
2021/2/8,17:00:00,12,��,1.5,-13.3,85.8,0,0.04,14,�k��,2.5,12,,
2021/2/8,18:00:00,11,���쐼,1.3,-14.5,93.9,0,0,11,���쐼,2.8,27,,
2021/2/8,19:00:00,13,���k��,1.6,-18.6,89.3,0,0,13,���k��,2.2,57,,
2021/2/8,20:00:00,12,��,1.9,-16.7,90.6,0,0,14,�k��,3.8,36,,
2021/2/8,21:00:00,12,��,1.7,-23.1,83.8,0,0,12,��,2.7,1,,
2021/2/8,22:00:00,13,���k��,1.9,-21.2,87.8,0,0,12,��,4.4,45,,
2021/2/8,23:00:00,12,��,1.4,-20.3,87.5,0,0,13,���k��,2.9,14,,
2021/2/8,0:00:00,13,���k��,1.4,-22,88.4,0,0,12,��,3.6,36,,
2021/2/9,1:00:00,12,��,1.4,-23.7,83.7,0,0,13,���k��,2.5,18,,
2021/2/9,2:00:00,13,���k��,2.5,-22.2,86.6,0,0,13,���k��,3.3,49,,
2021/2/9,3:00:00,13,���k��,2.5,-24.1,83.7,0,0,12,��,3.9,45,,
2021/2/9,4:00:00,13,���k��,2.7,-22.4,85.9,0,0,13,���k��,4,12,,
2021/2/9,5:00:00,13,���k��,2.9,-24.6,82.7,0,0.01,13,���k��,3.7,41,,
2021/2/9,6:00:00,13,���k��,3,-23.4,82.5,0,0,12,��,4.8,49,,
2021/2/9,7:00:00,14,�k��,2.7,-18.8,88.4,0,0.02,13,���k��,4.6,3,,
2021/2/9,8:00:00,13,���k��,1.4,-16.8,90.7,0,0.18,13,���k��,4.1,19,,
2021/2/9,9:00:00,13,���k��,1,-13.7,92.4,0,0.38,13,���k��,3.3,12,,
2021/2/9,10:00:00,6,�쓌,0.3,-7.7,90.8,0,0.55,12,��,2.4,19,,
2021/2/9,11:00:00,2,�k��,1.1,-3.5,55.5,0,0.62,2,�k��,1.6,54,,
2021/2/9,12:00:00,-1.9,#N/A,36.6,0,0.56,,,,,,,,
2021/2/9,13:00:00,15,�k�k��,2.5,-3.2,39.3,0,0.57,14,�k��,4.5,25,,
2021/2/9,14:00:00,15,�k�k��,2.5,-2.8,41.9,0,0.46,15,�k�k��,5.8,36,,
2021/2/9,15:00:00,14,�k��,3.4,-3.1,41,0,0.47,14,�k��,6.6,32,,
2021/2/9,16:00:00,15,�k�k��,2.1,-3.8,41.4,0,0.25,14,�k��,5.2,1,,
2021/2/9,17:00:00,14,�k��,1,-9.8,51.3,0,0.06,14,�k��,4.4,19,,
2021/2/9,18:00:00,12,��,2.2,-11.1,74.5,0,0,11,���쐼,3,49,,
2021/2/9,19:00:00,12,��,0.9,-15.9,76.5,0,0,13,���k��,2.5,1,,
2021/2/9,20:00:00,13,���k��,1.7,-19,82,0,0,13,���k��,2.5,49,,
2021/2/9,21:00:00,13,���k��,1.7,-16.9,82.5,0,0,12,��,3.5,34,,
2021/2/9,22:00:00,13,���k��,2,-19,85.6,0,0,12,��,3.2,12,,
2021/2/9,23:00:00,14,�k��,2.5,-17,84,0,0,13,���k��,3.8,21,,
2021/2/9,0:00:00,14,�k��,3.5,-17.5,82.6,0,0,14,�k��,4.4,57,,
2021/2/10,1:00:00,13,���k��,3.6,-18.5,87.3,0,0,13,���k��,4.4,51,,
2021/2/10,2:00:00,13,���k��,1.1,-19.5,88.8,0,0,14,�k��,4.2,7,,
2021/2/10,3:00:00,13,���k��,2,-20.5,87.9,0,0,13,���k��,4,47,,
2021/2/10,4:00:00,13,���k��,2.8,-19.6,87.1,0,0,12,��,3.8,58,,
2021/2/10,5:00:00,12,��,2.1,-19.5,86.8,0,0,12,��,4,56,,
2021/2/10,6:00:00,13,���k��,3.4,-19.2,88.1,0,0,12,��,4.7,55,,
2021/2/10,7:00:00,12,��,3.9,-21.5,85.7,0,0.02,13,���k��,5,50,,
2021/2/10,8:00:00,11,���쐼,1.4,-17.5,83.4,0,0.19,12,��,4.2,1,,
2021/2/10,9:00:00,13,���k��,2,-12.3,74.9,0,0.39,13,���k��,3.1,57,,
2021/2/10,10:00:00,12,��,3.6,-1.4,44.7,0,0.5,13,���k��,6.7,54,,
2021/2/10,11:00:00,11,���쐼,3.4,-0.6,40.4,0,0.64,12,��,7.6,13,,
2021/2/10,12:00:00,9,��쐼,2.5,0.2,37.5,0,0.69,10,�쐼,5.3,51,,
2021/2/10,13:00:00,8,��,0.7,0.3,33.7,0,0.6,6,�쓌,3.4,3,,
2021/2/10,14:00:00,4,��,0.4,1,38.3,0.5,0.57,3,���k��,3.5,31,,
2021/2/10,15:00:00,1,�k�k��,0.9,0.4,48.9,0,0.45,12,��,3,27,,
2021/2/10,16:00:00,5,���쓌,1.4,-3.4,62.7,0,0.26,3,���k��,2.9,26,,
2021/2/10,17:00:00,1,�k�k��,1.3,-5.6,79.1,0,0.05,1,�k�k��,2.1,51,,
2021/2/10,18:00:00,14,�k��,0.9,-10.4,91.5,0,0,16,�k,1.8,47,,
2021/2/10,19:00:00,13,���k��,1.6,-12.1,90.6,0,0,13,���k��,2.8,41,,
2021/2/10,20:00:00,13,���k��,1.1,-10.5,85.3,0,0,14,�k��,2.9,8,,
2021/2/10,21:00:00,12,��,1.4,-13.2,84.5,0,0,13,���k��,2.9,18,,
2021/2/10,22:00:00,11,���쐼,2,-16.7,88.6,0,0,11,���쐼,2.6,55,,
2021/2/10,23:00:00,13,���k��,2,-16.9,88.4,0,0,14,�k��,3.2,39,,
2021/2/10,0:00:00,13,���k��,1.6,-12.9,91.8,0,0,14,�k��,3.2,34,,
2021/2/11,1:00:00,13,���k��,2.3,-17,91.8,0,0,14,�k��,3.7,3,,
2021/2/11,2:00:00,13,���k��,2.2,-15.6,93,0,0,12,��,3.6,8,,
2021/2/11,3:00:00,13,���k��,3.3,-17.2,87,0,0,12,��,4.2,43,,
2021/2/11,4:00:00,13,���k��,1.7,-15,91.4,0,0,12,��,4.1,4,,
2021/2/11,5:00:00,14,�k��,1.2,-14.3,91.3,0,0,13,���k��,4.3,41,,
2021/2/11,6:00:00,13,���k��,1.6,-15.6,89.8,0,0,13,���k��,2.9,48,,
2021/2/11,7:00:00,13,���k��,2.4,-14.9,90.9,0,0.01,13,���k��,3,53,,
2021/2/11,8:00:00,13,���k��,1.6,-11.1,91.4,0,0.09,13,���k��,3.6,20,,
2021/2/11,9:00:00,14,�k��,0.7,-8.4,76.5,0,0.34,13,���k��,2.2,2,,
2021/2/11,10:00:00,12,��,0.5,-4,65.2,0,0.45,11,���쐼,2.3,46,,
2021/2/11,11:00:00,5,���쓌,3.8,-2.6,63.8,0,0.65,5,���쓌,4.9,51,,
2021/2/11,12:00:00,6,�쓌,2.1,-1.6,60.3,0,0.68,6,�쓌,4,34,,
2021/2/11,13:00:00,14,�k��,1.9,0.1,43.5,0,0.66,9,��쐼,5.8,19,,
2021/2/11,14:00:00,7,��쓌,2.7,-0.8,62.7,0,0.59,7,��쓌,5.7,47,,
2021/2/11,15:00:00,9,��쐼,2.5,-0.8,58.4,0,0.45,7,��쓌,5.4,30,,
2021/2/11,16:00:00,9,��쐼,4.2,-1.9,69.5,0,0.26,9,��쐼,7.3,57,,
2021/2/11,17:00:00,12,��,2,-5,71.9,0,0.06,8,��,5,1,,
2021/2/11,18:00:00,14,�k��,2.9,-3.7,70,0,0,12,��,4.6,12,,
2021/2/11,19:00:00,14,�k��,2.9,-3,65.8,0,0,13,���k��,7,47,,
2021/2/11,20:00:00,14,�k��,3.1,-3.3,62.9,0,0,14,�k��,6.1,29,,
2021/2/11,21:00:00,14,�k��,2.4,-3.9,61.7,0,0,14,�k��,6.6,42,,
2021/2/11,22:00:00,15,�k�k��,3.7,-3.1,57.3,0,0,14,�k��,6.9,58,,
2021/2/11,23:00:00,15,�k�k��,2.7,-3.6,61.5,0,0,14,�k��,6.8,10,,
2021/2/11,0:00:00,14,�k��,3.3,-4,63.6,0,0,16,�k,7.6,36,,
2021/2/12,1:00:00,14,�k��,3.8,-4.4,65.9,0,0,14,�k��,6.5,8,,
2021/2/12,2:00:00,13,���k��,3.2,-6.9,70.3,0,0,14,�k��,5.5,0,,
2021/2/12,3:00:00,12,��,2,-8.6,82,0,0,13,���k��,4.6,5,,
2021/2/12,4:00:00,2,�k��,1.2,-8.9,70.5,0,0,14,�k��,3.2,35,,
2021/2/12,5:00:00,14,�k��,2,-8.7,72.2,0,0,14,�k��,3.9,32,,
2021/2/12,6:00:00,13,���k��,2.6,-13.5,82.1,0,0,14,�k��,3.8,10,,
2021/2/12,7:00:00,13,���k��,2.6,-14.1,81.6,0,0.03,13,���k��,4,46,,
2021/2/12,8:00:00,13,���k��,3,-8.8,76.9,0,0.19,14,�k��,4.6,5,,
2021/2/12,9:00:00,13,���k��,2.2,-7.2,68,0,0.39,14,�k��,4.1,0,,
2021/2/12,10:00:00,13,���k��,1.5,-2.2,58.1,0,0.55,13,���k��,2.5,48,,
2021/2/12,11:00:00,13,���k��,0.3,-0.5,54.7,0,0.64,12,��,1.8,9,,
2021/2/12,12:00:00,11,���쐼,1.4,0.9,48.6,0,0.69,11,���쐼,2.8,39,,
2021/2/12,13:00:00,11,���쐼,1.5,2,44.4,0,0.67,11,���쐼,3.7,26,,
2021/2/12,14:00:00,6,�쓌,1.7,2.5,52.2,0,0.59,8,��,3.6,25,,
2021/2/12,15:00:00,10,�쐼,2.8,0.1,57.9,0,0.45,8,��,5.9,35,,
2021/2/12,16:00:00,8,��,2,-0.8,67.1,0,0.26,8,��,5.7,11,,
2021/2/12,17:00:00,11,���쐼,0.8,-5,85.9,0,0.06,10,�쐼,4.1,5,,
2021/2/12,18:00:00,12,��,1.2,-9.7,93.6,0,0,11,���쐼,2.7,6,,
2021/2/12,19:00:00,13,���k��,0.6,-10.8,85.9,0,0,13,���k��,2.6,53,,
2021/2/12,20:00:00,14,�k��,1,-9.5,89.6,0,0,13,���k��,2.9,17,,
2021/2/12,21:00:00,13,���k��,1.3,-13.7,91.4,0,0,12,��,2.5,24,,
2021/2/12,22:00:00,13,���k��,1.8,-11.5,91.7,0,0,13,���k��,3.4,27,,
2021/2/12,23:00:00,14,�k��,2.5,-9.9,93.2,0,0,14,�k��,3.1,54,,
2021/2/12,0:00:00,13,���k��,2.7,-13.8,89.1,0,0,13,���k��,3.6,35,,
2021/2/13,1:00:00,14,�k��,1.9,-12.2,88.9,0,0,13,���k��,3.4,2,,
2021/2/13,2:00:00,14,�k��,2.3,-8,80.6,0,0,14,�k��,4.3,39,,
2021/2/13,3:00:00,13,���k��,1.6,-11.9,90.1,0,0,14,�k��,4.5,11,,
2021/2/13,4:00:00,13,���k��,1.6,-11.9,92.5,0,0,13,���k��,3.4,47,,
2021/2/13,5:00:00,13,���k��,1.9,-13.1,91.2,0,0,14,�k��,2.8,16,,
2021/2/13,6:00:00,13,���k��,1.9,-14.2,94.1,0,0,13,���k��,2.8,51,,
2021/2/13,7:00:00,13,���k��,2.3,-14.7,91.6,0,0.02,13,���k��,3.3,43,,
2021/2/13,8:00:00,13,���k��,1.3,-11.4,93.8,0,0.16,13,���k��,2.7,12,,
2021/2/13,9:00:00,13,���k��,1.5,-5.2,81.8,0,0.24,13,���k��,3.8,38,,
2021/2/13,10:00:00,12,��,1.7,-3.2,76.2,0,0.35,14,�k��,2.5,17,,
2021/2/13,11:00:00,3,���k��,0.7,0.4,72.9,0,0.57,2,�k��,2.4,32,,
2021/2/13,12:00:00,6,�쓌,2.2,-0.7,67.7,0,0.62,6,�쓌,2.8,55,,
2021/2/13,13:00:00,6,�쓌,1.5,-0.6,66.1,0,0.6,6,�쓌,2.5,59,,
2021/2/13,14:00:00,7,��쓌,1.4,-0.9,68.7,0,0.5,6,�쓌,3.1,22,,
2021/2/13,15:00:00,6,�쓌,0.3,-0.5,74.1,0,0.3,7,��쓌,2.3,20,,
2021/2/13,16:00:00,-1.8,#N/A,77,0,0.19,,,,,,,,
2021/2/13,17:00:00,16,�É�,0.2,-3.8,91.1,0,0.05,3,���k��,2.7,53,,
2021/2/13,18:00:00,16,�k,0.5,-7.9,96.3,0,0,2,�k��,3,15,,
2021/2/13,19:00:00,13,���k��,1.1,-9.2,95.5,0,0,13,���k��,2,44,,
2021/2/13,20:00:00,13,���k��,0.8,-8.1,96,0,0,13,���k��,2.3,21,,
2021/2/13,21:00:00,-7.3,#N/A,93.1,0,0,,,,,,,,
2021/2/13,22:00:00,13,���k��,1.6,-7.3,93.6,0,0,13,���k��,2.3,55,,
2021/2/13,23:00:00,13,���k��,1.1,-9.2,92.8,0,0,12,��,2.7,33,,
2021/2/13,0:00:00,13,���k��,1.3,-9.4,95.6,0,0,13,���k��,2.7,26,,
2021/2/14,1:00:00,13,���k��,1.9,-9.4,95.7,0,0,13,���k��,2.7,25,,
2021/2/14,2:00:00,13,���k��,2.4,-9.9,96.1,0,0,13,���k��,3.2,47,,
2021/2/14,3:00:00,13,���k��,2.8,-10.9,95.7,0,0,13,���k��,3.3,59,,
2021/2/14,4:00:00,12,��,2.5,-12,93.4,0,0,12,��,3.3,31,,
2021/2/14,5:00:00,12,��,2.5,-10.6,92.2,0,0,13,���k��,3.3,55,,
2021/2/14,6:00:00,12,��,2.4,-9.8,93.1,0,0,12,��,3.6,27,,
2021/2/14,7:00:00,13,���k��,3.1,-10.7,90.1,0,0.02,13,���k��,3.6,56,,
2021/2/14,8:00:00,16,�É�,0,-8.7,87.1,0,0.13,13,���k��,3.5,2,,
2021/2/14,9:00:00,1,�k�k��,0.8,-6.2,78.1,0,0.31,15,�k�k��,2.5,7,,
2021/2/14,10:00:00,16,�É�,0.2,-0.4,68.9,0,0.5,2,�k��,7.5,38,,
2021/2/14,11:00:00,4,��,1.5,2.5,69.4,0,0.56,4,��,2.3,56,,
2021/2/14,12:00:00,5,���쓌,1.5,4.2,61.7,0,0.48,5,���쓌,2.4,53,,
2021/2/14,13:00:00,16,�É�,0.1,4.7,50.9,0,0.61,4,��,1.5,2,,
2021/2/14,14:00:00,6,�쓌,1.8,3.1,53.9,0,0.51,6,�쓌,2.8,42,,
2021/2/14,15:00:00,7,��쓌,1,2.7,59.3,0,0.32,7,��쓌,3.6,8,,
2021/2/14,16:00:00,6,�쓌,0.6,1.3,69.8,0,0.2,7,��쓌,2.5,24,,
2021/2/14,17:00:00,3,���k��,1,-1.3,85.6,0,0.03,1,�k�k��,2.1,38,,
2021/2/14,18:00:00,3,���k��,0.7,-2.8,89.2,0,0,3,���k��,1.7,34,,
2021/2/14,19:00:00,13,���k��,0.3,-6.6,92.5,0,0,15,�k�k��,1.9,46,,
2021/2/14,20:00:00,16,�É�,0.2,-5.3,95.7,0,0,10,�쐼,2.4,54,,
2021/2/14,21:00:00,14,�k��,1.2,-8.4,91.2,0,0,13,���k��,1.7,48,,
2021/2/14,22:00:00,12,��,2,-5.4,93.2,0,0,12,��,2.5,54,,
2021/2/14,23:00:00,13,���k��,0.9,-7.8,91.3,0,0,13,���k��,3,11,,
2021/2/14,0:00:00,14,�k��,1.4,-5.5,90,0,0,13,���k��,2.9,4,,
2021/2/15,1:00:00,13,���k��,2.1,-5.4,90.9,0,0,13,���k��,3.1,29,,
2021/2/15,2:00:00,13,���k��,1.4,-5.3,91.4,0,0,13,���k��,2.9,22,,
2021/2/15,3:00:00,13,���k��,2.1,-6.5,93.1,0,0,13,���k��,3.3,37,,
2021/2/15,4:00:00,14,�k��,1.8,-6,90.7,0,0,12,��,3.2,41,,
2021/2/15,5:00:00,13,���k��,1.5,-6.6,89.9,0,0,13,���k��,2.9,38,,
2021/2/15,6:00:00,12,��,1.6,-8.2,92.7,0,0,2,�k��,3.4,17,,
2021/2/15,7:00:00,14,�k��,0.5,-8,92.6,0,0.02,12,��,2.7,34,,
2021/2/15,8:00:00,14,�k��,0.7,-4,89.8,0,0.07,12,��,2.3,18,,
2021/2/15,9:00:00,-1.6,#N/A,79.7,0,0.14,,,,,,,,
2021/2/15,10:00:00,16,�k,0.8,-0.6,82.3,0,0.16,2,�k��,1.9,44,,
2021/2/15,11:00:00,16,�k,0.7,0.9,79.6,0,0.17,2,�k��,2.7,43,,
2021/2/15,12:00:00,1,�k�k��,2.3,1.5,83.1,0,0.21,1,�k�k��,3.6,52,,
2021/2/15,13:00:00,16,�k,0.4,0.8,94.3,1.5,0.09,1,�k�k��,5.1,3,,
2021/2/15,14:00:00,13,���k��,1.6,0.9,97.1,2,0.08,14,�k��,3.8,40,,
2021/2/15,15:00:00,14,�k��,2.4,0.8,97.3,2,0.08,14,�k��,3.8,48,,
2021/2/15,16:00:00,13,���k��,3,0.7,98.6,1.5,0.04,13,���k��,4.4,56,,
2021/2/15,17:00:00,14,�k��,2.8,0.7,98.7,2.5,0.01,13,���k��,5.3,30,,
2021/2/15,18:00:00,13,���k��,3.6,0.8,98.8,2.5,0,13,���k��,5.5,51,,
2021/2/15,19:00:00,14,�k��,3.2,0.8,99.2,3,0,14,�k��,5.4,34,,
2021/2/15,20:00:00,15,�k�k��,2.4,1,99.2,3,0,14,�k��,5.8,43,,
2021/2/15,21:00:00,15,�k�k��,2.3,1,99.5,3.5,0,13,���k��,5.9,44,,
2021/2/15,22:00:00,14,�k��,4.3,1.3,99.3,5,0,15,�k�k��,8.7,33,,
2021/2/15,23:00:00,14,�k��,5.9,1.7,98.8,8.5,0,15,�k�k��,11.9,41,,
2021/2/15,0:00:00,14,�k��,8.9,1.9,98,7.5,0,13,���k��,15.4,51,,
2021/2/16,1:00:00,14,�k��,10.4,1.6,96.9,6,0,15,�k�k��,18,43,,
2021/2/16,2:00:00,14,�k��,9.2,1.9,95.7,1.5,0,16,�k,17.3,35,,
2021/2/16,3:00:00,13,���k��,10.8,3.3,92.4,0.5,0,13,���k��,16.7,56,,
2021/2/16,4:00:00,12,��,5.2,3.4,91.4,0,0,13,���k��,14.1,6,,
2021/2/16,5:00:00,11,���쐼,8.1,5.2,79.2,0,0,11,���쐼,16.4,53,,
2021/2/16,6:00:00,10,�쐼,4,4.1,88.6,0.5,0,11,���쐼,13.6,3,,
2021/2/16,7:00:00,11,���쐼,8.6,4.5,75.2,0,0.01,11,���쐼,13.4,57,,
2021/2/16,8:00:00,11,���쐼,9.6,4.2,68.9,0,0.06,11,���쐼,19,19,,
2021/2/16,9:00:00,11,���쐼,6.4,3.6,68.1,0,0.14,10,�쐼,16.7,22,,
2021/2/16,10:00:00,12,��,8.4,2.4,71.7,0,0.3,11,���쐼,14,5,,
2021/2/16,11:00:00,12,��,7.8,1.7,73.9,0,0.37,12,��,18.1,15,,
2021/2/16,12:00:00,13,���k��,7.4,1.2,70.9,0,0.44,12,��,12.7,56,,
2021/2/16,13:00:00,12,��,6.3,0.9,68.3,0,0.36,11,���쐼,15.6,32,,
2021/2/16,14:00:00,12,��,7.7,0.5,63.5,0,0.31,12,��,15,27,,
2021/2/16,15:00:00,12,��,6,-1.2,81.2,0,0.15,12,��,14.4,12,,
2021/2/16,16:00:00,12,��,7.2,-1.6,71.4,0,0.1,10,�쐼,15.5,49,,
2021/2/16,17:00:00,12,��,7.4,-1.5,59.3,0,0.03,12,��,15.6,16,,
2021/2/16,18:00:00,12,��,7.9,-2.1,58.2,0,0,12,��,14.2,7,,
2021/2/16,19:00:00,10,�쐼,5.5,-4,89.5,0,0,12,��,14.2,9,,
2021/2/16,20:00:00,12,��,2.5,-3.5,79.2,0,0,11,���쐼,6.7,2,,
2021/2/16,21:00:00,12,��,5.8,-3,59.1,0,0,12,��,9.9,53,,
2021/2/16,22:00:00,11,���쐼,4.4,-3.8,71.3,0,0,10,�쐼,11.5,14,,
2021/2/16,23:00:00,12,��,4.8,-3.6,60,0,0,11,���쐼,12.7,27,,
2021/2/16,0:00:00,12,��,5.3,-3.7,59.3,0,0,13,���k��,11,33,,